THORAD AGENA D DEB, 42517

Orbit data source: Space-Track

THORAD AGENA D DEB, 42517 is space debris in SSO originally from a launch on Wed, 08 Apr 1970 UTC launched from the Air Force Western Test Range (AFWTR). Debris objects in space refer to the collection of defunct objects orbiting the Earth. Examples of debris include non-operational satellites, rocket bodies, and fragments generated from explosions, collisions, or faulty payload assembly.

Loading next visibility...
Identifier
42517, 1970-025RX
Orbit
SSO
Country
Flag of USUS
Related business
Manufacturer
Unknown
Mission
Spacecraft
Bus & Motor
Unknown
Mass
Unknown
Launch date (UTC)
1970-04-08 (56 years ago)
Launch vehicle
Unknown
Launch site
Air Force Western Test Range (AFWTR)
Object type
Payload
Rocket body
Debris
Shape & HBR
Unknown shape, 0.1 m
Radar Cross Section
Small (<0.1 m²)

Expand to show TLE details & history
Last TLE update: 22 hours ago

TLE from 22 hours ago
0 THORAD AGENA D DEB
1 42517U 70025RX  25287.41261440  .00000061  00000-0  18688-3 0  9990
2 42517 100.2628 332.9996 0087954 350.0226   9.9153 13.42281687583726
Epoch: 2025-10-14T09:54Z
TLE epoch observation values (Epoch: 2025-10-14T09:54:09.884Z)
Latitude
-0.00006°
Longitude
161.25702°
Altitude
1,038.755 km
Speed
7.364 km/s
True Right ascension
22h 11m 59s
True Declination
0° 00' 00"
Sunlit
Object was in full shadow at epoch
Visualization orbit readout
Latitude
Unknown
Longitude
Unknown
Altitude
Unknown
Speed
Unknown
Apparent Right ascension
Unknown
Apparent Declination
Unknown
Sunlit
N/A
Visualization observer readout
Local Sidereal Time
02:59:43
Azimuth
Unknown
Elevation
Unknown
Doppler factor
Unknown
Orbital elements
Apogee altitude
1,163.89 km
Perigee altitude
1,032.376 km
Semi-major axis
7,476.27 km
Eccentricity
0.0088
Inclination
100.2628°
RAAN
332.9996°
Arg. of periapsis
350.0226°
True anomaly
10.09075°
Mean anomaly
9.9153°
Eccentric anomaly
10.00283°
Mean motion
3.3575 °/min
Orbital period
107.22 mins
BSTAR
0.00018688
Loading maneuver chart data...
Computing Atmospheric mass density...

Documentation

Showing up to 5 results
|